Simultaneous Nadir Overpasses (SNOs) Predictions

Prediction of SNOs between GOES-17 and NOAA-19 Satellite Orbit:

Table of predicted SNOs for the next 14.0 days since TLE Epoch: 3/11/2023
Index Date Time (GOES-17) GOES-17 Lat,Lon NOAA-19 Lat,Lon Distance(km) Time Diff (sec)
1 03/12/2023 03:39:09 -0.01,-104.72 -1.02,-109.03 491.96 80
2 03/13/2023 03:27:11 -0.01,-104.72 -0.30,-106.12 158.80 80
3 03/14/2023 03:17:53 -0.01,-104.72 0.35,-103.20 174.31 80
4 03/16/2023 15:35:22 0.00,-104.76 0.73,-107.98 367.58 80
5 03/17/2023 15:23:22 0.01,-104.76 0.11,-105.05 34.59 80
6 03/18/2023 15:14:04 0.01,-104.76 -0.58,-102.14 298.83 80
7 03/21/2023 03:31:47 -0.01,-104.73 -0.55,-106.97 256.77 80
8 03/22/2023 03:22:28 -0.01,-104.73 0.13,-104.06 76.90 80
9 03/23/2023 03:10:30 -0.01,-104.74 0.82,-101.14 410.59 80
10 03/24/2023 15:39:55 0.01,-104.78 0.92,-108.84 462.62 80
